STARLINK-32947, 63121

Orbit data source: Space-Track

STARLINK-32947, 63121 is a payload satellite owned by SpaceX/Seattle (US) in LEO that was launched on Thu, 27 Feb 2025 UTC via an FALCON 9 launch vehicle from the Air Force Eastern Test Range (AFETR). Payload-class satellites include a variety of spacecraft equipped with specific instruments for various scientific and technological missions. These include communications satellites like Starlink; space stations such as the ISS; scientific satellites like the Hubble; Earth observation satellites from companies like Planet Labs, Umbra, and HawkEye 360; GPS; miniature CubeSats for education and research; and military/defense satellites.

Loading next visibility...
Identifier
63121, 2025-039T
Orbit
LEO
Country
Flag of USUS
Related business
Manufacturer
SpaceX/Seattle
Mission
Operational Commercial Communications
Bus & Motor
STARLINK V2M, Unknown motor
Mass
730 kg wet, ~700 kg dry
Launch date (UTC)
2025-02-27 (7 months ago)
Launch vehicle
FALCON 9
Launch site
Air Force Eastern Test Range (AFETR)
Object type
Payload
Rocket body
Debris
Shape & HBR
Box + 2 Pan, 14.5 m
Radar Cross Section
33.884 m², Large (>1 m²)

Expand to show TLE details & history
Last TLE update: 1 day ago

TLE from 1 day ago
0 STARLINK-32947
1 63121U 25039T   25260.03006090  .00026469  00000-0  96782-3 0  9997
2 63121  42.9999 273.0139 0000164 329.2958  30.7884 15.27584562 31516
Epoch: 2025-09-17T00:43Z
TLE epoch observation values (Epoch: 2025-09-17T00:43:17.261Z)
Latitude
-0.00003°
Longitude
-94.01992°
Altitude
482.714 km
Speed
7.626 km/s
True Right ascension
18h 12m 03s
True Declination
0° 00' 00"
Sunlit
Object was in daylight at epoch
Visualization orbit readout
Latitude
Unknown
Longitude
Unknown
Altitude
Unknown
Speed
Unknown
Apparent Right ascension
Unknown
Apparent Declination
Unknown
Sunlit
N/A
Visualization observer readout
Local Sidereal Time
17:36:06
Azimuth
Unknown
Elevation
Unknown
Doppler factor
Unknown
Orbital elements
Apogee altitude
485.093 km
Perigee altitude
484.868 km
Semi-major axis
6,863.118 km
Eccentricity
0.00002
Inclination
42.9999°
RAAN
273.0139°
Arg. of periapsis
329.2958°
True anomaly
30.78936°
Mean anomaly
30.7884°
Eccentric anomaly
30.78888°
Mean motion
3.81734 °/min
Orbital period
94.31 mins
BSTAR
0.00096782
Loading maneuver chart data...
Computing Atmospheric mass density...
Loading historical data...
Loading historical data...
Loading historical data...
Loading historical data...
Loading historical data...
Loading historical data...
Loading historical data...

Documentation

Showing up to 5 results
|